カタログに戻る

JASON

運用中科学LEO
NORAD 26997·PAYLOAD·🇺🇸 United States

打ち上げ Dec 7, 2001 から Vandenberg Space Force Base

Loading…

次のパス (今後24時間)

TLE

最新Source: Space-Track

元期: Sep 14, 2026, 09:25 UTC

1 26997U 01055A   26257.39244211 -.00000058  00000-0  16639-4 0  9995
2 26997  66.0371 247.3318 0009411 271.4789 258.1914 12.84089371160087

AllMySatでJASONをリアルタイム追跡

Download on the App Store